Torna al catalogo

STARLINK-32339

AttivoComunicazioniVLEO
NORAD 61640·PAYLOAD·🇺🇸 United States

Lanciato Oct 23, 2024 da Cape Canaveral Space Force Station

Loading…

Prossimi Passaggi (prossime 24 ore)

TLE

AggiornatoSource: CelesTrak SupGP

Epoca: Sep 14, 2026, 21:41 UTC

1 61640C 24191V   26257.90395833 -.00049525  00000+0 -17937-2 0  2578
2 61640  43.0028 165.5639 0001316 263.8328 269.2764 15.27605389    17

Traccia STARLINK-32339 in tempo reale con AllMySat

Download on the App Store